{"data":{"norad_id":50835,"intl_designator":"2022-001AJ","name":"STARLINK-3310","alt_names":[],"object_type":"PAYLOAD","status":"ACTIVE","operator":null,"country":"US","launch_date":"2022-01-06","launch_site_code":"AFETR","launch_vehicle":null,"mission":null,"orbit_class":"UNKNOWN","rcs_meters":null,"size_class":null,"mass_kg":null,"dimensions":null,"purposes":["comms"],"wikipedia_slug":null,"has_3d_model":false,"image_url":null,"decayed_at":null,"tle_current":{"epoch":"2026-05-25T03:16:22.139904Z","epoch_age_seconds":59137,"freshness":"FRESH","line1":"1 50835U 22001AJ  26145.13636736  .00012207  00000+0  76397-3 0  9995","line2":"2 50835  53.2141 195.9473 0001238  56.3768 303.7342 15.09779741241803","mean_motion":15.09779741,"eccentricity":0.0001238,"inclination_deg":53.2141,"raan_deg":195.9473,"arg_perigee_deg":56.3768,"mean_anomaly_deg":303.7342,"bstar":0.00076397,"rev_number":24180,"period_min":95.378150924599,"perigee_km":536.0163885176,"apogee_km":537.72854486155,"semimajor_km":6915.0094666896,"source":"CELESTRAK","updated_at":"2026-05-25T13:38:16.880536Z"}}}